GOPTI EGBO-EGCW

Flight info

Callsign GOPTI
Flight time 0h 24m
Altitude 4500
Route VFR DCT
Aircraft P28A/L-SDFG/C

Departure

Time 2026-04-30 14:45
Airport Wolverhampton Halfpenny Green Airport (EGBO)

Arrival

Time 2026-04-30 15:09
Airport Welshpool Airport (EGCW)
Time Latitude Longitude Altitude Speed Heading
2026-04-30 14:30 52.51546 -2.26461 266 ft 0 kts 184°
2026-04-30 14:40 52.51535 -2.26542 266 ft 13 kts 277°
2026-04-30 14:40 52.51545 -2.26692 262 ft 13 kts 282°
2026-04-30 14:40 52.51620 -2.26675 260 ft 18 kts 36°
2026-04-30 14:40 52.51724 -2.26548 264 ft 20 kts 38°
2026-04-30 14:41 52.51830 -2.26417 271 ft 18 kts 35°
2026-04-30 14:41 52.51928 -2.26299 277 ft 15 kts 30°
2026-04-30 14:41 52.51957 -2.26261 279 ft 0 kts 104°
2026-04-30 14:41 52.51956 -2.26258 279 ft 0 kts 118°
2026-04-30 14:42 52.51955 -2.26254 279 ft 2 kts 95°
2026-04-30 14:43 52.51982 -2.26233 280 ft 0 kts 38°
2026-04-30 14:44 52.52016 -2.26193 280 ft 10 kts 36°
2026-04-30 14:44 52.51981 -2.26130 282 ft 17 kts 155°
2026-04-30 14:44 52.51728 -2.25948 291 ft 58 kts 156°
2026-04-30 14:45 52.51342 -2.25735 454 ft 62 kts 150°
2026-04-30 14:45 52.50924 -2.25504 655 ft 62 kts 150°
2026-04-30 14:45 52.50524 -2.25257 889 ft 61 kts 144°
2026-04-30 14:45 52.50237 -2.24808 1141 ft 62 kts 90°
2026-04-30 14:46 52.50519 -2.24185 1403 ft 71 kts 61°
2026-04-30 14:46 52.50888 -2.23604 1676 ft 78 kts 52°
2026-04-30 14:46 52.51501 -2.23578 1888 ft 109 kts 342°
2026-04-30 14:46 52.52154 -2.24220 2150 ft 110 kts 335°
2026-04-30 14:47 52.52529 -2.25258 2406 ft 109 kts 266°
2026-04-30 14:47 52.52579 -2.26567 2615 ft 119 kts 272°
2026-04-30 14:47 52.52722 -2.27905 2784 ft 120 kts 279°
2026-04-30 14:47 52.52959 -2.29266 2927 ft 128 kts 285°
2026-04-30 14:48 52.53205 -2.30619 3209 ft 117 kts 285°
2026-04-30 14:48 52.53463 -2.31896 3340 ft 125 kts 290°
2026-04-30 14:48 52.53804 -2.33211 3456 ft 126 kts 295°
2026-04-30 14:48 52.54193 -2.34491 3621 ft 127 kts 297°
2026-04-30 14:49 52.54634 -2.35775 3742 ft 129 kts 300°
2026-04-30 14:49 52.55017 -2.37107 3888 ft 127 kts 287°
2026-04-30 14:49 52.55260 -2.38510 3978 ft 124 kts 278°
2026-04-30 14:49 52.55406 -2.39818 4159 ft 114 kts 274°
2026-04-30 14:50 52.55564 -2.42427 4322 ft 116 kts 263°
2026-04-30 14:50 52.55583 -2.43722 4456 ft 113 kts 259°
2026-04-30 14:51 52.55558 -2.46294 4477 ft 113 kts 255°
2026-04-30 14:51 52.55515 -2.47594 4376 ft 117 kts 257°
2026-04-30 14:51 52.55574 -2.50257 4391 ft 113 kts 265°
2026-04-30 14:52 52.55690 -2.51564 4331 ft 118 kts 270°
2026-04-30 14:52 52.55971 -2.54233 4394 ft 118 kts 271°
2026-04-30 14:52 52.56129 -2.55532 4356 ft 117 kts 273°
2026-04-30 14:53 52.56696 -2.58106 4277 ft 122 kts 287°
2026-04-30 14:53 52.57021 -2.59377 4278 ft 120 kts 284°
2026-04-30 14:54 52.57574 -2.61918 4165 ft 113 kts 265°
2026-04-30 14:54 52.57681 -2.64598 3988 ft 121 kts 273°
2026-04-30 14:55 52.57999 -2.67281 3967 ft 120 kts 274°
2026-04-30 14:55 52.58142 -2.68607 3933 ft 121 kts 272°
2026-04-30 14:55 52.58534 -2.71356 3838 ft 125 kts 283°
2026-04-30 14:56 52.59186 -2.74110 3622 ft 132 kts 290°
2026-04-30 14:56 52.59725 -2.77050 3346 ft 136 kts 276°
2026-04-30 14:57 52.59851 -2.78503 3363 ft 127 kts 274°
2026-04-30 14:57 52.60156 -2.81195 3446 ft 119 kts 278°
2026-04-30 14:58 52.60427 -2.83975 3556 ft 134 kts 279°
2026-04-30 14:58 52.60653 -2.85460 3448 ft 127 kts 284°
2026-04-30 14:58 52.61099 -2.88145 2950 ft 113 kts 281°
2026-04-30 14:59 52.61430 -2.90814 2759 ft 132 kts 276°
2026-04-30 15:00 52.61975 -2.95276 2826 ft 128 kts 279°
2026-04-30 15:00 52.62352 -2.98037 2815 ft 123 kts 272°
2026-04-30 15:01 52.62672 -3.00793 2831 ft 124 kts 283°
2026-04-30 15:01 52.62850 -3.02216 2855 ft 126 kts 272°
2026-04-30 15:01 52.62980 -3.05039 2890 ft 124 kts 270°
2026-04-30 15:02 52.63064 -3.06466 2859 ft 125 kts 271°
2026-04-30 15:02 52.63145 -3.07880 2836 ft 125 kts 265°
2026-04-30 15:03 52.63315 -3.12002 2856 ft 116 kts 268°
2026-04-30 15:03 52.63660 -3.14621 2735 ft 116 kts 283°
2026-04-30 15:04 52.63623 -3.17096 2798 ft 100 kts 213°
2026-04-30 15:04 52.62468 -3.16402 2549 ft 72 kts 119°
2026-04-30 15:05 52.61751 -3.14450 2209 ft 63 kts 119°
2026-04-30 15:06 52.62493 -3.13539 1998 ft 91 kts 28°
2026-04-30 15:06 52.63420 -3.15083 1788 ft 110 kts 299°
2026-04-30 15:07 52.64059 -3.17341 1692 ft 100 kts 278°
2026-04-30 15:07 52.63397 -3.18907 1590 ft 78 kts 197°
2026-04-30 15:08 52.62693 -3.18611 1302 ft 64 kts 121°
2026-04-30 15:08 52.61874 -3.17343 909 ft 58 kts 143°
2026-04-30 15:09 52.62172 -3.16182 450 ft 70 kts 51°
2026-04-30 15:09 52.62853 -3.15347 248 ft 29 kts 44°
2026-04-30 15:10 52.63023 -3.15140 247 ft 12 kts 36°
2026-04-30 15:11 52.63173 -3.15066 244 ft 8 kts 193°
2026-04-30 15:11 52.63147 -3.15154 245 ft 0 kts 92°